[[{"header":{"parameterUnit":"m.s-1","parameterCategory":1,"la1":30.2991,"la2":30.254,"lo1":-89.0895,"lo2":-89.0444,"dy":0.0017,"dx":0.0017,"nx":28,"ny":28,"refTime":"2024-04-28T09:00:00:Z","depth":0,"parameterNumber":2,"parameterNumberName":"U-component_of_WINDS"},"data":[0,0,0,0,0,0,0,0,0,0,0,0,0,0,0,0,0,0,0,0,0,0,0,0,0,0,0,0,0,0,0,0,0,0,0,0,0,0,0,0,0,0,0,0,0,0,0,0,0,0,0,0,0,0,0,0,0,0,-7.5194,-7.5195,0,-7.5279,-7.528,-7.5281,-7.5232,-7.523,-7.5227,-7.5225,-7.5308,-7.5313,-7.5317,0,0,0,0,0,0,0,0,0,0,0,0,0,-7.4988,-7.4992,-7.5194,-7.5195,-7.5196,-7.5279,-7.528,-7.5281,-7.5233,-7.523,-7.5227,-7.5224,-7.5307,-7.5312,-7.5317,0,0,0,0,0,0,0,0,0,0,0,0,0,-7.5076,-7.4994,-7.5194,-7.5182,-7.5182,-7.5278,-7.528,-7.5281,-7.5233,-7.523,-7.5226,-7.5223,-7.5305,-7.5311,-7.5318,-7.543,0,0,-7.5338,-7.5341,0,0,0,0,0,0,0,0,-7.5071,-7.5083,-7.5183,-7.5183,-7.5183,-7.5241,-7.5238,-7.5331,-7.5234,-7.5213,-7.5225,-7.5221,-7.5289,-7.5296,-7.532,-7.5434,-7.5437,-7.5339,-7.5343,-7.5346,-7.5348,0,0,0,0,0,0,0,-7.5065,-7.5079,-7.5227,-7.5184,-7.5184,-7.5172,-7.518,-7.5255,-7.527,-7.5215,-7.5212,-7.5223,-7.5288,-7.5314,-7.5322,-7.5439,-7.5339,-7.5345,-7.5349,-7.5351,-7.565,-7.5653,0,0,0,0,0,0,-7.506,-7.5075,-7.5225,-7.523,-7.5117,-7.5178,-7.5188,-7.5226,-7.5269,-7.5272,-7.5226,-7.522,-7.5304,-7.5314,-7.5324,-7.5457,-7.5346,-7.5352,-7.5356,-7.5646,-7.5651,-7.5655,0,0,0,0,0,0,-7.5056,-7.5074,-7.5221,-7.5152,-7.5169,-7.5186,-7.5229,-7.523,-7.5255,-7.5277,-7.5279,-7.5249,-7.5302,-7.5315,-7.5404,-7.5459,-7.5355,-7.5361,-7.5641,-7.5647,-7.5653,-7.5725,0,0,0,0,0,0,-7.505,-7.5073,-7.5115,-7.5153,-7.5173,-7.53,-7.5232,-7.5234,-7.5267,-7.5261,-7.53,-7.5303,-7.53,-7.5395,-7.5411,-7.5467,-7.5366,-7.5636,-7.5644,-7.5651,-7.5717,-7.5732,-7.5745,0,0,0,0,0,-7.5043,-7.5131,-7.5118,-7.5136,-7.5227,-7.5304,-7.5315,-7.5311,-7.5272,-7.5314,-7.5329,-7.5301,-7.5452,-7.5404,-7.5422,-7.5481,-7.5632,-7.5642,-7.565,-7.5711,-7.5729,-7.5745,0,0,0,0,0,0,-7.5097,-7.5136,-7.5121,-7.5224,-7.5262,-7.5295,-7.5348,-7.5331,-7.5378,-7.537,-7.5363,-7.5372,-7.5465,-7.5483,-7.5429,-7.5592,-7.5536,-7.5549,-7.5576,-7.5594,-7.5607,-7.5599,-7.5372,0,0,0,0,0,-7.5122,-7.5181,-7.5212,-7.53,-7.532,-7.5332,-7.5365,-7.5359,-7.5397,-7.5411,-7.5432,-7.5469,-7.5524,-7.5561,-7.5613,-7.5722,-7.5729,-7.5771,-7.5785,-7.5796,-7.5806,-7.5864,-7.5883,-7.5684,-7.5684,-7.5684,0,0,-7.5171,-7.52,-7.5238,-7.5312,-7.5339,-7.5401,-7.5345,-7.5411,-7.5456,-7.5421,-7.5506,-7.5524,-7.5565,-7.5664,-7.5709,-7.5681,-7.5864,-7.5808,-7.5817,-7.582,-7.5875,-7.5894,-7.5911,-7.569,-7.5689,-7.5688,0,0,-7.5293,-7.5322,-7.5398,-7.5428,-7.5473,-7.5481,-7.55,-7.5538,-7.5548,-7.5635,-7.5609,-7.5664,-7.576,-7.5789,-7.5817,-7.5956,-7.5931,-7.5973,-7.6044,-7.6101,-7.6117,-7.613,-7.6177,-7.6195,-7.5984,-7.5984,-7.5984,0,-7.5348,-7.544,-7.5439,-7.5509,-7.5542,-7.5516,-7.5593,-7.5622,-7.5681,-7.5704,-7.5673,-7.5795,-7.582,-7.5926,-7.596,-7.5985,-7.6005,-7.5966,-7.6115,-7.6129,-7.6141,-7.6186,-7.6204,-7.5989,-7.5988,-7.5988,-7.5987,0,-7.5506,-7.5571,-7.5627,-7.5686,-7.5726,-7.5799,-7.5809,-7.585,-7.5843,-7.5854,-7.5943,-7.5974,-7.6032,-7.6058,-7.6051,-7.6164,-7.6145,-7.6116,-7.6058,-7.6165,-7.6207,-7.6224,-7.5995,-7.5994,-7.5992,-7.5991,0,0,-7.5658,-7.5719,-7.574,-7.5766,-7.5816,-7.5865,-7.5938,-7.5997,-7.6031,-7.6075,-7.6134,-7.6219,-7.6192,-7.6224,-7.6221,-7.6271,-7.6377,-7.6235,-7.6236,-7.6258,-7.6502,-7.6521,-7.6541,-7.6364,-7.6367,-7.637,-7.6498,0,-7.5781,-7.5908,-7.5911,-7.6027,-7.6087,-7.6066,-7.6129,-7.6166,-7.618,-7.6232,-7.6248,-7.6307,-7.6268,-7.6287,-7.6337,-7.6354,-7.6425,-7.6345,-7.6417,-7.6419,-7.6403,-7.6564,-7.6584,-7.6703,-7.6514,-7.6517,-7.6519,0,-7.5939,-7.5989,-7.6111,-7.6154,-7.6179,-7.6236,-7.6291,-7.6342,-7.6384,-7.6391,-7.6429,-7.6419,-7.6493,-7.6438,-7.6539,-7.6485,-7.6515,-7.6529,-7.6533,-7.6536,-7.6472,-7.6567,-7.6741,-7.6757,-7.6546,-7.6543,-7.6542,0,-7.6034,-7.6133,-7.6219,-7.6243,-7.6295,-7.6335,-7.6359,-7.6398,-7.6434,-7.6483,-7.6506,-7.6563,-7.6593,-7.6637,-7.6642,-7.6602,-7.6744,-7.669,-7.675,-7.675,-7.6776,-7.6774,-7.6953,-7.6803,-7.6803,-7.6803,-7.6802,0,-7.6168,-7.6243,-7.6262,-7.6315,-7.6399,-7.6403,-7.6486,-7.6506,-7.6542,-7.6598,-7.6585,-7.6637,-7.6643,-7.6698,-7.6704,-7.6786,-7.6801,-7.6807,-7.6807,-7.6806,-7.6805,-7.6822,-7.6812,-7.6808,-7.6807,-7.6806,-7.6805,0,-7.6286,-7.6303,-7.6395,-7.6438,-7.6451,-7.6511,-7.6548,-7.6598,-7.6613,-7.6684,-7.6701,-7.6723,-7.6787,-7.6799,-7.6874,-7.6878,-7.6975,-7.6969,-7.6961,-7.6959,-7.7017,-7.701,-7.7211,-7.7237,-7.7073,-7.7075,-7.7076,0,-7.6368,-7.6426,-7.6477,-7.6514,-7.654,-7.66,-7.6638,-7.6645,-7.6685,-7.6739,-7.6783,-7.6846,-7.6896,-7.6999,-7.7021,-7.7079,-7.7072,-7.7138,-7.708,-7.7077,-7.7069,-7.7064,-7.7069,-7.7147,-7.7149,-7.7151,-7.7152,0,-7.6512,-7.6518,-7.6573,-7.6632,-7.6677,-7.6724,-7.6767,-7.6799,-7.6813,-7.6858,-7.6924,-7.6963,-7.7041,-7.7103,-7.7162,-7.7185,-7.7171,-7.7171,-7.7188,-7.7185,-7.7177,-7.7179,-7.6987,-7.7165,-7.7164,-7.7163,-7.7162,-7.7162,-7.6612,-7.6663,-7.6707,-7.6769,-7.6804,-7.6846,-7.6895,-7.6918,-7.6974,-7.7038,-7.704,-7.7112,-7.7155,-7.7232,-7.726,-7.7316,-7.7295,-7.7319,-7.7325,-7.7329,-7.7334,-7.7172,-7.7327,-7.7327,-7.7326,-7.7326,-7.7326,0,-7.6752,-7.6781,-7.6838,-7.6901,-7.6951,-7.6937,-7.6985,-7.7027,-7.7091,-7.7133,-7.7184,-7.726,-7.7321,-7.7351,-7.7411,-7.7451,-7.7446,-7.7466,-7.7461,-7.7466,-7.7351,-7.7329,-7.7469,-7.7469,-7.7469,-7.7469,-7.7469,-7.7469,-7.683,-7.6915,-7.6927,-7.7029,-7.7057,-7.7128,-7.7157,-7.7196,-7.723,-7.7316,-7.7367,-7.7387,-7.7424,-7.7488,-7.7544,-7.7551,-7.7573,-7.7596,-7.7599,-7.7489,-7.7475,-7.746,-7.744,-7.7601,-7.7601,-7.771,-7.7711,-7.7712]},{"header":{"parameterUnit":"m.s-1","parameterCategory":1,"la1":30.2991,"la2":30.254,"lo1":-89.0895,"lo2":-89.0444,"dy":0.0017,"dx":0.0017,"nx":28,"ny":28,"refTime":"2024-04-28T09:00:00:Z","depth":0,"parameterNumber":3,"parameterNumberName":"V-component_of_WINDS"},"data":[0,0,0,0,0,0,0,0,0,0,0,0,0,0,0,0,0,0,0,0,0,0,0,0,0,0,0,0,0,0,0,0,0,0,0,0,0,0,0,0,0,0,0,0,0,0,0,0,0,0,0,0,0,0,0,0,0,0,3.9072,3.9073,0,3.9135,3.9136,3.9137,3.9191,3.9192,3.9192,3.9193,3.9253,3.9254,3.9255,0,0,0,0,0,0,0,0,0,0,0,0,0,3.8996,3.8997,3.9072,3.9073,3.9073,3.9135,3.9136,3.9137,3.9191,3.9192,3.9192,3.9193,3.9253,3.9254,3.9255,0,0,0,0,0,0,0,0,0,0,0,0,0,3.9041,3.8997,3.9072,3.9108,3.9112,3.9135,3.9136,3.9137,3.9191,3.9192,3.9193,3.9194,3.9252,3.9254,3.9255,3.9246,0,0,3.926,3.926,0,0,0,0,0,0,0,0,3.9038,3.9043,3.9102,3.9106,3.911,3.9156,3.9131,3.9173,3.9191,3.9161,3.9193,3.9194,3.922,3.9224,3.9234,3.9249,3.9251,3.926,3.9261,3.9262,3.9262,0,0,0,0,0,0,0,3.9035,3.9041,3.9097,3.9103,3.9108,3.912,3.9128,3.9139,3.9184,3.9163,3.9167,3.9174,3.9222,3.9232,3.9235,3.9252,3.926,3.9261,3.9262,3.9263,3.9265,3.9265,0,0,0,0,0,0,3.9027,3.9038,3.9095,3.9099,3.9076,3.9121,3.9129,3.914,3.9184,3.9192,3.9174,3.9177,3.9229,3.9234,3.9238,3.9232,3.9262,3.9263,3.9264,3.9266,3.9265,3.9264,0,0,0,0,0,0,3.9025,3.9031,3.9092,3.907,3.9078,3.9121,3.9133,3.9141,3.9151,3.9192,3.92,3.9176,3.923,3.9236,3.9244,3.9234,3.9264,3.9265,3.9267,3.9266,3.9265,3.9218,0,0,0,0,0,0,3.9022,3.903,3.9027,3.9069,3.9079,3.9098,3.9133,3.9142,3.9154,3.9159,3.9196,3.9203,3.9231,3.9242,3.9246,3.9237,3.9266,3.9268,3.9267,3.9265,3.9221,3.9215,3.9211,0,0,0,0,0,3.9019,3.901,3.9027,3.9033,3.9077,3.9098,3.9103,3.9137,3.9153,3.9151,3.9177,3.9202,3.9235,3.9242,3.9247,3.9239,3.9269,3.9267,3.9265,3.9223,3.9216,3.9211,0,0,0,0,0,0,3.8963,3.9016,3.9035,3.9039,3.9064,3.9107,3.9105,3.9129,3.9148,3.9151,3.9191,3.9199,3.9204,3.9222,3.9229,3.9233,3.9255,3.9254,3.9221,3.9216,3.9211,3.9206,3.9267,0,0,0,0,0,3.8952,3.8965,3.901,3.9009,3.9021,3.9061,3.9071,3.9095,3.9122,3.9132,3.9159,3.9182,3.9199,3.9208,3.9225,3.9224,3.9233,3.922,3.9215,3.9211,3.921,3.9213,3.9208,3.9258,3.9258,3.9258,0,0,3.8927,3.8958,3.8963,3.8999,3.9021,3.9034,3.9069,3.908,3.909,3.9133,3.9144,3.9165,3.9194,3.9198,3.9202,3.9214,3.9199,3.9209,3.9205,3.9206,3.921,3.9206,3.9201,3.9257,3.9257,3.9257,0,0,3.889,3.8914,3.8917,3.894,3.8973,3.9,3.9001,3.9041,3.9057,3.907,3.9103,3.9114,3.9141,3.9161,3.9174,3.9148,3.9172,3.9152,3.9126,3.9129,3.9125,3.9122,3.9113,3.911,3.9151,3.915,3.915,0,3.8855,3.8877,3.8915,3.8926,3.8941,3.8983,3.8987,3.9006,3.9043,3.9052,3.9065,3.9102,3.9123,3.9135,3.9129,3.9138,3.914,3.9148,3.9122,3.912,3.9117,3.911,3.9107,3.9148,3.9148,3.9149,3.9149,0,3.8833,3.8848,3.8846,3.8884,3.8899,3.8906,3.8945,3.8955,3.8979,3.9004,3.9017,3.9046,3.907,3.9075,3.9096,3.9089,3.9096,3.9115,3.9138,3.9109,3.9103,3.9101,3.9144,3.9145,3.9146,3.9147,0,0,3.8761,3.8822,3.8821,3.884,3.8881,3.8893,3.8902,3.8929,3.8937,3.8961,3.8971,3.8993,3.9013,3.9028,3.9053,3.9055,3.9034,3.9074,3.9075,3.9067,3.903,3.9016,3.9012,3.905,3.905,3.9049,3.9028,0,3.8731,3.8752,3.8789,3.8798,3.8813,3.8854,3.8862,3.8888,3.8913,3.8929,3.8955,3.8971,3.8994,3.9004,3.9008,3.9036,3.9027,3.9038,3.9059,3.9059,3.9051,3.9009,3.8993,3.8971,3.9026,3.9025,3.9025,0,3.8699,3.8724,3.8735,3.8779,3.8787,3.8793,3.8822,3.8836,3.8867,3.8885,3.8904,3.8932,3.8944,3.8965,3.8982,3.8989,3.8999,3.9014,3.9014,3.9018,3.9041,3.9012,3.8965,3.8962,3.9021,3.9021,3.9022,0,3.8647,3.8683,3.8696,3.871,3.876,3.8765,3.8786,3.8818,3.8832,3.8856,3.8866,3.889,3.8904,3.8922,3.8956,3.8968,3.897,3.8993,3.8985,3.8984,3.8984,3.8983,3.8939,3.8989,3.8989,3.8989,3.8989,0,3.8611,3.8616,3.8674,3.8681,3.8689,3.8731,3.8737,3.8762,3.879,3.8803,3.8839,3.885,3.8894,3.891,3.8936,3.8948,3.8953,3.8967,3.8974,3.8965,3.8963,3.8973,3.8975,3.8988,3.8988,3.8989,3.8989,0,3.8554,3.8593,3.8609,3.8657,3.8669,3.8673,3.8713,3.8722,3.875,3.8765,3.8771,3.8814,3.8835,3.8871,3.8901,3.8919,3.8925,3.8937,3.8916,3.892,3.8911,3.8911,3.8871,3.8869,3.8919,3.8919,3.8918,0,3.8529,3.8535,3.8584,3.8597,3.8617,3.8636,3.8652,3.8693,3.8708,3.8745,3.8749,3.8774,3.8796,3.8827,3.886,3.8884,3.8897,3.8881,3.89,3.8891,3.8898,3.8898,3.8899,3.8877,3.8876,3.8875,3.8875,0,3.8481,3.85,3.8523,3.8552,3.8571,3.8596,3.8622,3.863,3.8677,3.8691,3.8715,3.8732,3.8765,3.8789,3.8818,3.8838,3.8864,3.8869,3.8868,3.8859,3.8847,3.8855,3.8905,3.8869,3.887,3.887,3.887,3.8871,3.844,3.8449,3.8486,3.851,3.8535,3.8559,3.8571,3.8601,3.8622,3.8654,3.8676,3.8698,3.873,3.8773,3.8792,3.8809,3.8821,3.882,3.882,3.8819,3.8816,3.8844,3.8814,3.8815,3.8815,3.8815,3.8815,0,3.8395,3.8422,3.8444,3.8482,3.8501,3.8526,3.8557,3.8571,3.8591,3.862,3.8642,3.8669,3.8693,3.8729,3.8755,3.8762,3.8775,3.8768,3.8768,3.8773,3.8804,3.8802,3.8758,3.8758,3.8758,3.8758,3.8758,3.8758,3.8374,3.8391,3.8415,3.8444,3.847,3.8494,3.851,3.8533,3.8556,3.8586,3.8607,3.8631,3.8663,3.8693,3.8716,3.8726,3.8734,3.8724,3.8737,3.8765,3.877,3.8776,3.8774,3.8725,3.8725,3.8706,3.8705,3.8705]}]]